Regional Weather Roundup
Issued by NWS

Home | Current Version | Previous Version | Graphics & Text | Print | Product List | Glossary Off
Versions: 1 2 3 4 5 6 7 8 9 10 11 12 13 14 15 16 17 18 19 20 21 22 23 24 25 26 27 28 29 30 31 32 33 34 35 36 37 38 39 40 41 42 43 44 45 46 47 48 49 50

778
ASUS43 KTOP 112359
RWRKS

WEATHER ROUNDUP FOR KANSAS
NATIONAL WEATHER SERVICE GOODLAND KS
600 PM CST MON DEC 11 2017

NOTE:  "FAIR" INDICATES FEW OR NO CLOUDS BELOW 12,000 FEET WITH NO
SIGNIFICANT WEATHER AND/OR OBSTRUCTIONS TO VISIBILITY.

KSZ001>006-013>018-027>032-041>047-120100-
NORTHWEST KANSAS

CITY           SKY/WX    TMP DP  RH WIND       PRES   REMARKS
GOODLAND       CLOUDY    48   7  18 N20G28    30.31R
6HR MIN TEMP:  48; 6HR MAX TEMP:  58;

HAYS           CLEAR     50  24  36 N24G33    30.26R
HILL CITY      CLEAR     47  24  40 N15       30.30R
6HR MIN TEMP:  47; 6HR MAX TEMP:  60;

RUSSELL        MOCLDY    49  26  41 N18       30.24R
6HR MIN TEMP:  49; 6HR MAX TEMP:  60;

$$

KSZ061>065-074>080-084>089-120100-
SOUTHWEST KANSAS

CITY           SKY/WX    TMP DP  RH WIND       PRES   REMARKS
DODGE CITY     CLEAR     54  14  20 N21G29    30.25R
6HR MIN TEMP:  54; 6HR MAX TEMP:  65;

GARDEN CITY    CLEAR     52   7  16 N17       30.28R
6HR MIN TEMP:  52; 6HR MAX TEMP:  64;

GREAT BEND     CLEAR     48  22  35 N15G22    30.24R
LIBERAL        CLEAR     45  10  24 N10       30.29R
$$

KSZ066>073-081>083-090>101-120100-
SOUTHEAST KANSAS

CITY           SKY/WX    TMP DP  RH WIND       PRES   REMARKS
CHANUTE        PTCLDY    52  26  36 NW17      30.12R
6HR MIN TEMP:  52; 6HR MAX TEMP:  65;

COFFEYVILLE    MOCLDY    56  24  29 N21G31    30.13R
6HR MIN TEMP:  56; 6HR MAX TEMP:  70;

HUTCHINSON     CLEAR     50  25  37 N13G21    30.20R
6HR MIN TEMP:  50; 6HR MAX TEMP:  65;

MEDICINE LODGE   N/A     56  13  18 N15G21    30.20R
NEWTON         CLOUDY    49  26  41 N28G36    30.19R
PARSONS        MOCLDY    53  26  35 NW21G30   30.13R
6HR MIN TEMP:  53; 6HR MAX TEMP:  69;

WICHITA INTL   PTCLDY    53  24  32 N16G30    30.17R
6HR MIN TEMP:  53; 6HR MAX TEMP:  67;

WICHITA JABRA  PTCLDY    50  25  37 N16       30.17R
6HR MIN TEMP:  50; 6HR MAX TEMP:  65;

WICHITA MCCONL CLOUDY    52  22  30 N18G24    30.16R
WINFIELD       CLEAR     50  18  28 N13       30.16R
6HR MIN TEMP:  50; 6HR MAX TEMP:  68;

$$

KSZ007>012-019>026-033>040-048>060-102>105-120100-
NORTHEAST KANSAS

CITY           SKY/WX    TMP DP  RH WIND       PRES   REMARKS
CONCORDIA      CLOUDY    44  29  55 N21G30    30.24R
6HR MIN TEMP:  44; 6HR MAX TEMP:  57;

EMPORIA        CLOUDY    49  26  41 N23G33    30.14R
6HR MIN TEMP:  49; 6HR MAX TEMP:  59;

LAWRENCE       MOCLDY    50  30  46 NW28G35   30.11R
6HR MIN TEMP:  49; 6HR MAX TEMP:  58;

MANHATTAN      CLOUDY    49  28  44 N8G24     30.19R
6HR MIN TEMP:  49; 6HR MAX TEMP:  60;

OLATHE IND     PTCLDY    48  29  47 NW17G29   30.10R
6HR MIN TEMP:  48; 6HR MAX TEMP:  56;

OLATHE EXE     MOCLDY    47  29  49 NW15G29   30.08R
6HR MIN TEMP:  47; 6HR MAX TEMP:  55;

SALINA         CLOUDY    49  28  44 N29G36    30.23R
6HR MIN TEMP:  49; 6HR MAX TEMP:  60;

TOPEKA BILLARD CLOUDY    49  31  49 NW22G38   30.13R
6HR MIN TEMP:  49; 6HR MAX TEMP:  58;

TOPEKA FORBES  CLOUDY    50  30  46 NW21G32   30.13R
6HR MIN TEMP:  50; 6HR MAX TEMP:  59; 6HR PCP: TRACE;

$$




USA.gov is the U.S. government's official web portal to all federal, state and local government web resources and services.